Weather History for Stockholm Arlanda, Sweden

Change the Weather History Date:

Friday, February 15, 2013

  Actual Average Record
Temperature  
Mean Temperature 32 °F -  
Max Temperature 35 °F 34 °F 42 °F (2001)
Min Temperature 30 °F 22 °F -2 °F (2011)
Degree Days  
Heating Degree Days 32    
Moisture  
Dew Point 32 °F    
Average Humidity 95    
Maximum Humidity 100    
Minimum Humidity 87    
Precipitation  
Precipitation 0.00 in - - ()
Sea Level Pressure  
Sea Level Pressure 30.27 in    
Wind  
Wind Speed 5 mph ()    
Max Wind Speed 8 mph    
Max Gust Speed 20 mph    
Visibility 4.4 miles    
Events Snow    
Averages and records for this station are not official NWS values.
T = Trace of Precipitation, MM = Missing Value Source: Averaged Metar Reports

Daily Weather History Graph

Daily Weather History Graph

Search for Another Location

Airport:

Trip Planner

Search our weather history database for the weather conditions in past years. The results will help you decide how hot, cold, wet, or windy it might be!

Date:

Astronomy

Feb. 15, 2013 Rise Set
Actual Time 7:24 AM CET 4:40 PM CET
Civil Twilight 6:41 AM CET 5:24 PM CET
Nautical Twilight 5:53 AM CET 6:12 PM CET
Astronomical Twilight 5:05 AM CET 7:00 PM CET
Moon 8:18 AM CET (2/15) No Moon Set
Length of Visible Light 10h 42m
Length of Day
9h 16m
Waxing Crescent, 28% of the Moon is Illuminated
Feb 15
Waxing Crescent
Feb 17
First Quarter
Feb 25
Full
Mar 4
Last Quarter
Mar 11
New

Hourly Weather History & Observations

Time (CET) Temp. Windchill Dew Point Humidity Pressure Visibility Wind Dir Wind Speed Gust Speed Precip Events Conditions
12:20 AM 33.8 °F 27.7 °F 32.0 °F 93% 30.27 in 6.2 mi SE 6.9 mph - N/A   Overcast
12:50 AM 33.8 °F 28.6 °F 32.0 °F 93% 30.27 in 6.2 mi SE 5.8 mph - N/A   Overcast
1:20 AM 33.8 °F 27.7 °F 32.0 °F 93% 30.27 in 6.2 mi SE 6.9 mph - N/A   Overcast
1:50 AM 32.0 °F 26.4 °F 32.0 °F 100% 30.27 in 6.2 mi SE 5.8 mph - N/A   Overcast
2:20 AM 32.0 °F 26.4 °F 32.0 °F 100% 30.27 in 6.2 mi SE 5.8 mph - N/A   Overcast
2:50 AM 32.0 °F 27.5 °F 32.0 °F 100% 30.27 in 6.2 mi SE 4.6 mph - N/A   Overcast
3:20 AM 32.0 °F 26.4 °F 30.2 °F 93% 30.27 in 6.2 mi SE 5.8 mph - N/A   Mostly Cloudy
3:50 AM 32.0 °F 26.4 °F 30.2 °F 93% 30.27 in 6.2 mi SE 5.8 mph - N/A   Scattered Clouds
4:20 AM 30.2 °F 24.3 °F 28.4 °F 93% 30.27 in 6.2 mi SE 5.8 mph - N/A   Mostly Cloudy
4:50 AM 32.0 °F 27.5 °F 30.2 °F 93% 30.27 in 6.2 mi SE 4.6 mph - N/A   Mostly Cloudy
5:20 AM 32.0 °F 26.4 °F 28.4 °F 87% 30.27 in 6.2 mi SE 5.8 mph - N/A   Overcast
5:50 AM 32.0 °F 27.5 °F 28.4 °F 87% 30.27 in 6.2 mi SE 4.6 mph - N/A   Overcast
6:20 AM 32.0 °F 26.4 °F 28.4 °F 87% 30.27 in 6.2 mi ESE 5.8 mph - N/A   Overcast
6:50 AM 32.0 °F 26.4 °F 28.4 °F 87% 30.27 in 6.2 mi SE 5.8 mph - N/A   Overcast
7:20 AM 32.0 °F 24.8 °F 28.4 °F 87% 30.27 in 6.2 mi SE 8.1 mph - N/A   Overcast
7:50 AM 32.0 °F 26.4 °F 28.4 °F 87% 30.27 in 6.2 mi ESE 5.8 mph - N/A   Overcast
8:20 AM 32.0 °F 26.4 °F 28.4 °F 87% 30.27 in 6.2 mi ESE 5.8 mph - N/A   Overcast
8:50 AM 32.0 °F 26.4 °F 30.2 °F 93% 30.27 in 6.2 mi East 5.8 mph - N/A   Mostly Cloudy
9:20 AM 32.0 °F 26.4 °F 30.2 °F 93% 30.27 in 6.2 mi ESE 5.8 mph - N/A   Mostly Cloudy
9:50 AM 32.0 °F 26.4 °F 30.2 °F 93% 30.27 in 6.2 mi ESE 5.8 mph - N/A   Mostly Cloudy
10:20 AM 33.8 °F 28.6 °F 30.2 °F 87% 30.27 in 6.2 mi ESE 5.8 mph - N/A   Mostly Cloudy
10:50 AM 33.8 °F 27.7 °F 30.2 °F 87% 30.27 in 6.2 mi ESE 6.9 mph - N/A   Mostly Cloudy
11:20 AM 33.8 °F 28.6 °F 32.0 °F 93% 30.27 in 6.2 mi ESE 5.8 mph - N/A   Mostly Cloudy
11:50 AM 33.8 °F 27.7 °F 32.0 °F 93% 30.27 in 6.2 mi SE 6.9 mph - N/A   Mostly Cloudy
12:20 PM 33.8 °F 28.6 °F 32.0 °F 93% 30.27 in 5.6 mi ESE 5.8 mph 17.3 mph N/A   Mostly Cloudy
12:50 PM 33.8 °F 28.6 °F 32.0 °F 93% 30.27 in 5.6 mi ESE 5.8 mph - N/A   Mostly Cloudy
1:20 PM 33.8 °F 28.6 °F 33.8 °F 100% 30.27 in 5.6 mi ESE 5.8 mph - N/A   Mostly Cloudy
1:50 PM 35.6 °F 30.7 °F 33.8 °F 93% 30.27 in 5.0 mi ESE 5.8 mph 19.6 mph N/A   Mostly Cloudy
2:20 PM 33.8 °F 29.6 °F 33.8 °F 100% 30.27 in 5.0 mi ESE 4.6 mph - N/A   Mostly Cloudy
2:50 PM 33.8 °F 28.6 °F 33.8 °F 100% 30.24 in 4.3 mi East 5.8 mph - N/A   Mostly Cloudy
3:20 PM 33.8 °F 29.6 °F 33.8 °F 100% 30.24 in 3.7 mi ESE 4.6 mph - N/A   Mostly Cloudy
3:50 PM 33.8 °F 29.6 °F 33.8 °F 100% 30.24 in 3.7 mi ESE 4.6 mph - N/A Snow Light Snow Grains
4:20 PM 33.8 °F 28.6 °F 33.8 °F 100% 30.24 in 2.5 mi ESE 5.8 mph - N/A   Mostly Cloudy
4:50 PM 33.8 °F 28.6 °F 33.8 °F 100% 30.24 in 2.2 mi ESE 5.8 mph - N/A   Overcast
5:20 PM 33.8 °F 27.7 °F 33.8 °F 100% 30.24 in 1.9 mi SE 6.9 mph - N/A   Overcast
5:50 PM 33.8 °F 28.6 °F 33.8 °F 100% 30.27 in 1.6 mi SE 5.8 mph - N/A   Overcast
6:20 PM 33.8 °F 28.6 °F 33.8 °F 100% 30.27 in 1.2 mi SE 5.8 mph - N/A   Overcast
6:50 PM 33.8 °F 28.6 °F 33.8 °F 100% 30.27 in 1.2 mi SE 5.8 mph - N/A   Overcast
7:20 PM 33.8 °F 28.6 °F 33.8 °F 100% 30.27 in 1.2 mi SE 5.8 mph - N/A   Overcast
7:50 PM 33.8 °F 28.6 °F 33.8 °F 100% 30.27 in 1.2 mi SE 5.8 mph - N/A   Overcast
8:20 PM 33.8 °F 28.6 °F 33.8 °F 100% 30.27 in 1.2 mi SE 5.8 mph - N/A   Overcast
8:50 PM 33.8 °F 28.6 °F 33.8 °F 100% 30.27 in 1.2 mi SSE 5.8 mph - N/A   Overcast
9:20 PM 33.8 °F 29.6 °F 33.8 °F 100% 30.27 in 1.2 mi SE 4.6 mph - N/A   Overcast
9:50 PM 33.8 °F 28.6 °F 33.8 °F 100% 30.27 in 1.6 mi SSE 5.8 mph - N/A   Mostly Cloudy
10:20 PM 33.8 °F 28.6 °F 33.8 °F 100% 30.27 in 1.6 mi SSE 5.8 mph - N/A   Mostly Cloudy
10:50 PM 33.8 °F 27.7 °F 33.8 °F 100% 30.27 in 1.6 mi SSE 6.9 mph - N/A   Light Drizzle
11:20 PM 33.8 °F 28.6 °F 33.8 °F 100% 30.27 in 1.7 mi South 5.8 mph - N/A   Mostly Cloudy
11:50 PM 33.8 °F 27.7 °F 33.8 °F 100% 30.27 in 1.7 mi SSE 6.9 mph - N/A   Overcast